TimeEST,TemperatureF,Dew PointF,Humidity,Sea Level PressureIn,VisibilityMPH,Wind Direction,Wind SpeedMPH,Gust SpeedMPH,PrecipitationIn,Events,Conditions,WindDirDegrees,DateUTC
12:56 AM,28.9,19.9,69,30.42,-9999.0,South,5.8,-,N/A,,Unknown,180,2012-11-14 05:56:00
1:56 AM,30.0,19.0,64,30.41,-9999.0,SSW,6.9,-,N/A,,Unknown,200,2012-11-14 06:56:00
2:56 AM,30.0,19.0,64,30.42,-9999.0,SSW,6.9,-,N/A,,Unknown,200,2012-11-14 07:56:00
3:56 AM,30.0,19.0,64,30.43,-9999.0,South,5.8,-,N/A,,Unknown,190,2012-11-14 08:56:00
4:56 AM,28.9,19.9,69,30.43,-9999.0,South,6.9,-,N/A,,Unknown,190,2012-11-14 09:56:00
5:56 AM,28.9,19.9,69,30.43,-9999.0,South,9.2,-,N/A,,Unknown,190,2012-11-14 10:56:00
6:56 AM,30.9,19.9,64,30.43,-9999.0,South,8.1,-,N/A,,Unknown,190,2012-11-14 11:56:00
7:56 AM,30.9,19.9,64,30.43,-9999.0,South,8.1,-,N/A,,Unknown,190,2012-11-14 12:56:00
8:56 AM,33.1,21.0,61,30.43,-9999.0,South,8.1,-,N/A,,Unknown,190,2012-11-14 13:56:00
9:56 AM,35.1,21.0,57,30.42,-9999.0,South,9.2,-,N/A,,Unknown,190,2012-11-14 14:56:00
10:56 AM,37.9,24.1,57,30.42,-9999.0,South,9.2,-,N/A,,Unknown,190,2012-11-14 15:56:00
11:56 AM,41.0,27.0,57,30.39,-9999.0,South,10.4,17.3,N/A,,Unknown,180,2012-11-14 16:56:00
12:56 PM,43.0,28.0,56,30.36,-9999.0,South,10.4,18.4,N/A,,Unknown,170,2012-11-14 17:56:00
1:56 PM,44.1,27.0,51,30.33,-9999.0,South,11.5,25.3,N/A,,Unknown,180,2012-11-14 18:56:00
2:56 PM,45.0,28.9,53,30.31,-9999.0,South,18.4,27.6,N/A,,Unknown,180,2012-11-14 19:56:00
3:56 PM,44.1,30.9,60,30.30,-9999.0,South,17.3,26.5,N/A,,Unknown,180,2012-11-14 20:56:00
4:56 PM,43.0,32.0,65,30.30,-9999.0,South,10.4,21.9,N/A,,Unknown,180,2012-11-14 21:56:00
5:56 PM,43.0,33.1,68,30.30,-9999.0,South,12.7,21.9,N/A,,Unknown,190,2012-11-14 22:56:00
6:56 PM,43.0,33.1,68,30.30,-9999.0,South,9.2,21.9,N/A,,Unknown,190,2012-11-14 23:56:00
7:56 PM,43.0,34.0,71,30.31,-9999.0,South,9.2,19.6,N/A,,Unknown,190,2012-11-15 00:56:00
8:56 PM,42.1,34.0,73,30.30,-9999.0,South,10.4,19.6,N/A,,Unknown,190,2012-11-15 01:56:00
9:56 PM,41.0,34.0,76,30.30,-9999.0,South,9.2,-,N/A,,Unknown,190,2012-11-15 02:56:00
10:56 PM,41.0,34.0,76,30.29,-9999.0,South,8.1,-,N/A,,Unknown,190,2012-11-15 03:56:00
11:56 PM,41.0,34.0,76,30.28,-9999.0,South,9.2,-,N/A,,Unknown,190,2012-11-15 04:56:00